Regional Weather Roundup
Issued by NWS Kansas City/Pleasant Hill, MO

Home | Current Version | Previous Version | Graphics & Text | Print | Product List | Glossary Off
Versions: 1 2 3 4 5 6 7 8 9 10 11 12 13 14 15 16 17 18 19 20 21 22 23 24 25 26 27 28 29 30 31 32 33 34 35 36 37 38 39 40 41 42 43 44 45 46 47 48 49 50

000
ASUS43 KEAX 010004
RWREAX

WEATHER ROUNDUP FOR EASTERN KANSAS AND NORTHWEST MISSOURI
NATIONAL WEATHER SERVICE KANSAS CITY/PLEASANT HILL MO
700 PM CDT TUE SEP 30 2014

KSZ040-057-103>105-MOZ028-029-037-043-010100-
...KANSAS CITY METROPOLITAN AREA...

CITY           SKY/WX    TMP DP  RH WIND       PRES   REMARKS
K.C. INTL      MOCLDY    75  58  55 S9        29.79S
6HR MIN TEMP:  74; 6HR MAX TEMP:  84;

K.C. DOWNTOWN  CLEAR     81  57  43 S8        29.78S
6HR MIN TEMP:  80; 6HR MAX TEMP:  86;

LEES SUMMIT    CLEAR     78  57  48 S8        29.81S
6HR MIN TEMP:  78; 6HR MAX TEMP:  84;

OLATHE - IXD   PTCLDY    76  57  51 SE9       29.79F
6HR MIN TEMP:  76; 6HR MAX TEMP:  83;

OLATHE - OJC   CLEAR     76  56  49 S9        29.79S
6HR MIN TEMP:  76; 6HR MAX TEMP:  83;

LAWRENCE       PTCLDY    77  57  50 SE12      29.77S

$$

MOZ001>008-011>017-020>025-030>033-038>040-044>046-053-054-010100-
...NORTHERN AND CENTRAL MISSOURI...

CITY           SKY/WX    TMP DP  RH WIND       PRES   REMARKS
ST. JOSEPH     PTCLDY    76  58  53 S9        29.76F
6HR MIN TEMP:  76; 6HR MAX TEMP:  87;

MOSBY          CLEAR     79  57  47 SE5       29.79S
WHITEMAN AFB   CLEAR     75  60  59 S7        29.82S
6HR MIN TEMP:  75; 6HR MAX TEMP:  85;

CLINTON        CLEAR     77  63  61 CALM      29.82F HAZE
SEDALIA        CLEAR     75  58  55 S6        29.84S
6HR MIN TEMP:  75; 6HR MAX TEMP:  86;

WARSAW         NOT AVBL
MARSHALL       CLEAR     79  61  53 SE5       29.83S
CHILLICOTHE      N/A     76  59  55 CALM      29.82S
6HR MIN TEMP:  76; 6HR MAX TEMP:  85;

MOBERLY        CLEAR     75  61  60 E7        29.85S
KIRKSVILLE     CLEAR     69  61  75 E7        29.87S HAZE
6HR MIN TEMP:  69; 6HR MAX TEMP:  75;


$$

MOZ041-047>049-056>058-063>065-088>090-097-010100-
...EASTERN AND SOUTHERN MISSOURI...

CITY           SKY/WX    TMP DP  RH WIND       PRES   REMARKS
ST. LOUIS INTL PTCLDY    78  59  51 E8        29.88S
6HR MIN TEMP:  78; 6HR MAX TEMP:  87;

SPIRIT OF STL  PTCLDY   N/A N/A N/A SE5       29.85F
COLUMBIA       CLEAR     77  56  48 S5        29.85S
JEFFERSON CITY CLEAR     78  59  51 E3        29.83S
MEXICO         CLEAR     77  66  69 E7        29.86S
ROLLA          MOCLDY    76  53  44 S3        29.86S
LEBANON        CLEAR     75  57  53 S6        29.88S
OSAGE BEACH    MOCLDY    73  61  64 S3        29.85S
SPRINGFIELD    PTCLDY    75  57  53 SE8       29.85F
BRANSON        CLEAR     77  55  47 S6        29.88F
NEVADA         CLEAR     73  59  60 S5        29.83R HAZE
JOPLIN         CLEAR     76  61  59 S8        29.83S
WEST PLAINS    CLEAR     73  53  49 CALM      29.91S

$$

IAZ060-094-KSZ022-034>040-054-083-096-NEZ052-066-093-010100-
...KANSAS...SOUTHEAST NEBRASKA AND IOWA...

CITY           SKY/WX    TMP DP  RH WIND       PRES   REMARKS
TOPEKA         PTCLDY    80  58  46 SE12      29.75S
6HR MIN TEMP:  78; 6HR MAX TEMP:  87;

MANHATTAN      MOCLDY    80  62  54 S13       29.70S
EMPORIA        CLEAR     77  61  57 SE14      29.74F
CHANUTE        CLEAR     77  62  59 SE14      29.78F
WICHITA        MOCLDY    83  58  42 S18G26    29.70S
OMAHA          LGT RAIN  66  63  90 S12       29.79S FOG
LINCOLN        MOCLDY    64  61  90 S5        29.76S
FALLS CITY     MOCLDY    69  64  84 E7        29.74F
LAMONI         PTCLDY    71  63  75 E8        29.82S
DES MOINES     CLOUDY    69  58  67 SE12      29.84R

$$



USA.gov is the U.S. government's official web portal to all federal, state and local government web resources and services.